Regional Weather Roundup
Issued by NWS

Home | Current Version | Previous Version | Text Only | Print | Product List | Glossary On
Versions: 1 2 3 4 5 6 7 8 9 10 11 12 13 14 15 16 17 18 19 20 21 22 23 24 25 26 27 28 29 30 31 32 33 34 35 36 37 38 39 40 41 42 43 44 45 46 47 48 49 50
000
ASUS43 KMPX 131610
RWRMN
WEATHER ROUNDUP FOR MINNESOTA
NATIONAL WEATHER SERVICE TWIN CITIES/CHANHASSEN MN
1100 AM CDT SUN JUL 13 2014


NOTE: "FAIR" INDICATES FEW OR NO CLOUDS BELOW 12,000 FEET WITH NO
SIGNIFICANT WEATHER AND/OR OBSTRUCTIONS TO VISIBILITY. N/A MEANS
CURRENT SKY AND/OR WEATHER CONDITIONS ARE NOT AVAILABLE.

MNZ060>063-068>070-131700-
   Twin Cities Metro

CITY           SKY/WX    TMP DP  RH WIND       PRES   REMARKS
TWIN CITIES    SUNNY     71  50  47 W7        29.98S
ST PAUL        SUNNY     71  51  49 VRB6      29.97F
CRYSTAL        SUNNY     71  50  47 W5        29.96F
BLAINE         SUNNY     72  55  56 W7        29.97F
LAKEVILLE      SUNNY     70  52  52 N6        29.99R
EDEN PRAIRIE   SUNNY     70  51  51 VRB6      29.98S
SOUTH ST PAUL  SUNNY     71  47  43 W3        29.97F
LAKE ELMO      FAIR      70  52  52 W7        29.99S
$$
MNZ001>005-007-008-013>017-022>024-027-028-131700-
   Northwest Minnesota

CITY           SKY/WX    TMP DP  RH WIND       PRES   REMARKS
BEMIDJI        MOSUNNY   65  49  54 W14G23    29.92F
HALLOCK        SUNNY     64  48  55 NW17G24   29.90S
ROSEAU         SUNNY     64  52  63 NW18G25   29.86F
WARROAD        MOSUNNY   63  50  63 W16G25    29.85F
THIEF RVR FALL SUNNY     64  48  55 W13G21    29.92F
CROOKSTON      SUNNY     66  52  59 NW13G18   29.94F
FOSSTON        SUNNY     64  54  68 W13       29.95R
DETROIT LAKES  SUNNY     66  48  52 NW14      29.98F
MOORHEAD       SUNNY     70  45  40 NW14      29.98F
PARK RAPIDS    SUNNY     67  50  54 W14       29.95F
$$
MNZ006-009>011-018-025>026-131700-
   North Central Minnesota

CITY           SKY/WX    TMP DP  RH WIND       PRES   REMARKS
BAUDETTE       MOSUNNY   64  46  52 W9G25     29.85F
FLAG ISLAND    CLOUDY    61  48  63 W18G26    29.80S
INTL FALLS     CLOUDY    64  48  56 W12G24    29.82F
WASKISH        MOSUNNY   64  52  63 W13G22    29.87F
BIG FORK       SUNNY     64  52  63 SW10      29.89F
LONGVILLE      SUNNY     66  52  59 W9        29.92F
GRAND RAPIDS   PTSUNNY   63  50  63 W16       29.91F
CRANE LAKE     MOSUNNY   61  50  67 W6G18     29.84F
ORR            MOSUNNY   64  48  55 W13G20    29.83F
COOK           MOSUNNY   63  52  67 W12G18    29.87F
$$
MNZ012-019>021-037-131700-
   Northeast Minnesota

CITY           SKY/WX    TMP DP  RH WIND       PRES   REMARKS
DULUTH         MOSUNNY   66  48  52 W10       29.90F
ELY            MOSUNNY   61  48  63 W10       29.86F
HIBBING        SUNNY     64  51  62 W10       29.89F
EVELETH        MOSUNNY   63  50  63 SW7       29.89F
DULUTH HARBOR  SUNNY     68  48  49 SW14G21   29.91F
TWO HARBORS    PTSUNNY   64  48  55 W14G21    29.87F
SILVER BAY     SUNNY     63  52  67 W7        29.86S
GRAND MARAIS     N/A     48  41  76 W7        29.82F
G MARAIS ARPRT MOSUNNY   63  43  48 W13G23    29.84S
$$
MNZ029>031-032-039>041-046>048-054>057-064-131700-
   West Central Minnesota

CITY           SKY/WX    TMP DP  RH WIND       PRES   REMARKS
FERGUS FALLS   SUNNY     70  45  40 NW14      29.99F
WHEATON        SUNNY     68  54  60 W9        30.02F
MORRIS         SUNNY     70  55  60 NW10G16   30.00F
ALEXANDRIA     SUNNY     68  52  56 W13       30.00F
ELBOW LAKE     FAIR      68  50  52 NW10      30.00F
WADENA         SUNNY     66  48  52 W13       29.96F
GLENWOOD       SUNNY     70  54  56 W10G17    30.01F
APPLETON       SUNNY     73  54  49 W8        30.00F
BENSON         PTSUNNY   70  57  64 NW12      30.01F
ORTONVILLE     SUNNY     73  52  46 W6        30.00F
MADISON        SUNNY     75  52  43 NW7       30.01F
WILLMAR        FAIR      70  55  60 W13       30.02F
$$
MNZ033>034-036-042>043-049>051-058-059-131700-
   Central Minnesota

CITY           SKY/WX    TMP DP  RH WIND       PRES   REMARKS
ST CLOUD       SUNNY     72  48  42 SW10      29.97F
SAUK CENTRE    FAIR      69  51  53 W10G20    29.99F
PAYNESVILLE    SUNNY     67  54  63 S7        29.99F HAZE
AITKIN         SUNNY     70  54  56 SW8       29.92F
PINE RIVER       N/A     66  52  59 W8        29.97F
BRAINERD       SUNNY     73  50  44 W8G18     29.95F
STAPLES        MOSUNNY   68  46  45 W13       29.96F
LONG PRAIRIE   FAIR      68  50  52 W9        29.98F
LITTLE FALLS   SUNNY     70  46  43 W13G21    29.96F
LITCHFIELD     SUNNY     70  54  56 W6        30.00F
BUFFALO        SUNNY     68  50  52 W9        29.99F
MAPLE LAKE     SUNNY     70  54  57 CALM      30.00S
$$
MNZ037-044-045-052-053-131700-
   East Central Minnesota

CITY           SKY/WX    TMP DP  RH WIND       PRES   REMARKS
PRINCETON      SUNNY     70  52  52 SW7       29.97F
MORA           SUNNY     64  48  55 W10       29.97F
CAMBRIDGE      SUNNY     70  54  56 SW8       29.95S
RUSH CITY      SUNNY     67  52  58 W6        29.96S
MOOSE LAKE     SUNNY     66  46  48 CALM      29.91F
HINCKLEY       FAIR      68  52  56 SW7       29.95F
CLOQUET        MOSUNNY   66  45  45 W12       29.92F
MCGREGOR       SUNNY     64  48  55 SW12      29.93F
$$
MNZ071>073-080-081-089-090-097-098-131700-
   Southwest Minnesota

CITY           SKY/WX    TMP DP  RH WIND       PRES   REMARKS
MONTEVIDEO     SUNNY     73  55  53 NW7       30.01F
GRANITE FALLS  SUNNY     71  53  52 W8        30.03S
CANBY          SUNNY     77  53  43 W12G18    30.03S
MARSHALL       SUNNY     72  55  56 NW6       30.02S
REDWOOD FALLS  SUNNY     71  55  56 W8        30.01S
OLIVIA         SUNNY     70  55  60 W10       30.00F
PIPESTONE      SUNNY     73  52  46 N9        30.06S
WINDOM         SUNNY     75  54  46 W8        30.04S
WORTHINGTON    SUNNY     72  55  56 W5        30.07S
JACKSON        SUNNY     73  55  53 NW7       30.04F
TRACY          SUNNY     73  58  60 W3        30.03F
SLAYTON        SUNNY     74  49  40 W13       30.05F
$$
MNZ065>067-074>077-082>085-091>093-131700-
   South Central Minnesota

CITY           SKY/WX    TMP DP  RH WIND       PRES   REMARKS
MANKATO        SUNNY     72  54  53 NW14      30.00S
NEW ULM        SUNNY     72  57  60 NW10      30.01S
ST JAMES       SUNNY     73  54  49 W6        30.02S
FAIRMONT       SUNNY     75  54  46 N12       30.02S
GLENCOE        SUNNY     70  49  46 SW7       29.99F
FARIBAULT      MOSUNNY   75  54  46 NW6       30.00S
OWATONNA       MOSUNNY   72  57  60 NW14      30.00R
WASECA         SUNNY     72  55  56 NW13      30.02R
ALBERT LEA     SUNNY     73  59  60 W10G20    30.00S
$$
MNZ078>079-086>088-094>096-131700-
   Southeast Minnesota

CITY           SKY/WX    TMP DP  RH WIND       PRES   REMARKS
ROCHESTER      SUNNY     72  61  68 NW8       29.99F
RED WING       SUNNY     72  48  43 CALM      29.96S
STANTON        SUNNY     71  51  50 N3        29.98S
DODGE CENTER   MOSUNNY   72  61  68 NW10G16   29.99S
WINONA         SUNNY     73  59  60 NW7       29.96S
AUSTIN         SUNNY     73  57  56 NW13      29.99S
PRESTON        SUNNY     72  65  77 W9        29.99S
$$
ABBREVIATIONS USED IN REMARKS
   TC - TEMPERATURES IN CELSIUS
  WCI - WIND CHILL INDEX
   HX - HEAT INDEX
  VSB - VISIBILITY
$$



USA.gov is the U.S. government's official web portal to all federal, state and local government web resources and services.